Scilly, United Kingdom

8:08 AM BST on April 27, 2018 (GMT +0100)
Saint Mary's

Weather History for EGHE - February, 2014

Change the Weather History Date:

Friday, February 21, 2014

  Actual Average Record
Temperature  
Mean Temperature 46 °F -  
Max Temperature 49 °F 48 °F 54 °F (2016)
Min Temperature 42 °F 46 °F 40 °F (2015)
Degree Days  
Heating Degree Days 20    
Moisture  
Dew Point 39 °F    
Average Humidity 72    
Maximum Humidity 87    
Minimum Humidity 54    
Precipitation  
Precipitation 0.04 in - - ()
Sea Level Pressure  
Sea Level Pressure 29.70 in    
Wind  
Wind Speed 22 mph ()    
Max Wind Speed 29 mph    
Max Gust Speed 40 mph    
Visibility 9.7 miles    
Events Rain    
Averages and records for this station are not official NWS values.
T = Trace of Precipitation, MM = Missing Value Source: Averaged Metar Reports

Daily Weather History Graph

Daily Weather History Graph

Search for Another Location

Airport or City:

Astronomy

Feb. 21, 2014 Rise Set
Actual Time 7:24 AM GMT 5:53 PM GMT
Civil Twilight 6:51 AM GMT 6:26 PM GMT
Nautical Twilight 6:14 AM GMT 7:04 PM GMT
Astronomical Twilight 5:37 AM GMT 7:41 PM GMT
Moon 12:09 AM GMT (2/21) 10:00 AM GMT (2/21)
Length of Visible Light 11h 34m
Length of Day
10h 29m
Waning Gibbous, 63% of the Moon is Illuminated
Feb 21
Waning Gibbous
Feb 22
Last Quarter
Mar 1
New
Mar 8
First Quarter
Mar 16
Full

Hourly Weather History & Observations

Time (GMT) Temp. Windchill Dew Point Humidity Pressure Visibility Wind Dir Wind Speed Gust Speed Precip Events Conditions
12:00 AM 44 °F - 37 °F 68% 29.68 in 25 mi West 24.2 mph - -  
1:00 AM 44 °F - 37 °F 69% 29.69 in 19 mi West 26.5 mph - -   Scattered Clouds
2:00 AM 43 °F - 37 °F 73% 29.69 in 25 mi West 21.9 mph - -  
3:00 AM 44 °F - 37 °F 69% 29.70 in 22 mi West 23.0 mph - -   Scattered Clouds
5:00 AM 44 °F - 36 °F 65% 29.69 in 16 mi West 24.2 mph - -   Scattered Clouds
6:00 AM 44 °F - 36 °F 66% 29.70 in 16 mi WSW 21.9 mph - -   Partly Cloudy
7:00 AM 45 °F - 34 °F 54% 29.69 in 25 mi West 27.6 mph - -   Partly Cloudy
8:00 AM 44 °F - 37 °F 69% 29.70 in 19 mi West 24.2 mph - -   Scattered Clouds
8:20 AM 44.6 °F 36.1 °F 37.4 °F 76% 29.71 in 6.2 mi WSW 21.9 mph - N/A   Partly Cloudy
8:50 AM 46.4 °F 37.7 °F 37.4 °F 71% 29.68 in 6.2 mi WSW 26.5 mph 40.3 mph N/A   Partly Cloudy
9:00 AM 46 °F - 36 °F 59% 29.71 in 12 mi WSW 28.8 mph - -   Partly Cloudy
9:20 AM 46.4 °F 38.3 °F 37.4 °F 71% 29.68 in 6.2 mi WSW 23.0 mph 34.5 mph N/A   Partly Cloudy
9:50 AM 46.4 °F 38.1 °F 39.2 °F 76% 29.68 in 6.2 mi WSW 24.2 mph - N/A   Partly Cloudy
10:00 AM 47 °F - 38 °F 62% 29.71 in 16 mi WSW 23.0 mph - -  
10:20 AM 48.2 °F - 39.2 °F 71% 29.68 in 6.2 mi WSW 27.6 mph - N/A   Partly Cloudy
10:50 AM 46.4 °F 37.5 °F 39.2 °F 76% 29.71 in 6.2 mi WSW 27.6 mph - N/A   Scattered Clouds
11:00 AM 47 °F - 41 °F 71% 29.72 in 7 mi WSW 28.8 mph - -   Scattered Clouds
11:20 AM 46.4 °F 37.9 °F 39.2 °F 76% 29.71 in 6.2 mi WSW 25.3 mph - N/A   Partly Cloudy
11:50 AM 48.2 °F - 41.0 °F 76% 29.71 in 6.2 mi WSW 24.2 mph - N/A   Partly Cloudy
12:00 PM 48 °F - 41 °F 68% 29.72 in 11 mi WSW 25.3 mph - - Rain Rain
12:20 PM 50.0 °F - 42.8 °F 76% 29.71 in 6.2 mi WSW 24.2 mph - N/A   Scattered Clouds
1:00 PM 46 °F - 40 °F 72% 29.72 in 25 mi West 18.4 mph - - Rain Rain
1:50 PM 48.2 °F - 41.0 °F 76% 29.71 in 6.2 mi West 21.9 mph - N/A   Scattered Clouds
2:00 PM 48 °F - 40 °F 65% 29.71 in 16 mi West 21.9 mph - - Rain Rain
2:20 PM 46.4 °F 38.1 °F 39.2 °F 76% 29.71 in 6.2 mi West 24.2 mph - N/A Rain Light Rain Showers
2:50 PM 46.4 °F 39.0 °F 41.0 °F 81% 29.68 in 6.2 mi WSW 19.6 mph - N/A   Scattered Clouds
3:00 PM 47 °F - 42 °F 76% 29.69 in 9 mi WSW 19.6 mph - - Rain Rain
3:20 PM 48.2 °F - 39.2 °F 71% 29.68 in 6.2 mi WSW 21.9 mph 33.4 mph N/A   Partly Cloudy
3:50 PM 44.6 °F 36.4 °F 41.0 °F 87% 29.68 in 6.2 mi West 20.7 mph - N/A   Partly Cloudy
4:00 PM 45 °F - 40 °F 78% 29.69 in 15 mi WSW 20.7 mph - - Rain Rain
4:20 PM 46.4 °F 38.1 °F 39.2 °F 76% 29.68 in 6.2 mi West 24.2 mph 35.7 mph N/A   Partly Cloudy
4:50 PM 48.2 °F - 39.2 °F 71% 29.68 in 6.2 mi WSW 23.0 mph - N/A   Scattered Clouds
5:00 PM 48 °F - 40 °F 67% 29.69 in 8 mi WSW 20.7 mph - -   Scattered Clouds
6:00 PM 46 °F - 42 °F 80% 29.70 in 8 mi WSW 20.7 mph - - Rain Rain
7:00 PM 46 °F - 41 °F 76% 29.71 in 16 mi West 23.0 mph - - Rain Rain
8:00 PM 47 °F - 41 °F 73% 29.71 in 7 mi West 19.6 mph - -   Scattered Clouds
9:00 PM 46 °F - 40 °F 72% 29.72 in 10 mi West 19.6 mph - - Rain Rain
10:00 PM 47 °F - 39 °F 66% 29.73 in 11 mi West 19.6 mph - -   Scattered Clouds
11:00 PM 47 °F - 39 °F 67% 29.74 in 13 mi West 18.4 mph - -   Scattered Clouds